sat.trackr.live / text

‹ back to catalog

BRO-12

NORAD 59108 · 2024-043L

PAYLOAD ACTIVE UNKNOWN

§ Identity

Operator
Country
FR
Launch date
2024-03-04
Launch site
AFWTR
Launch vehicle
Mass (kg)
RCS (m²)

External: N2YO · Heavens-Above · Gunter

§ Orbital elements

Epoch: 2026-05-25T03:48:56.549376Z

Period
96.21 min
Inclination
97.8447°
Eccentricity
0.0009439
Mean motion
14.96771552 rev/d
Perigee alt
570.3 km
Apogee alt
583.4 km
Semi-major
6,955.0 km
B*
8.1637e-5
RAAN
276.2683°
Arg perigee
74.2937°
Mean anomaly
285.9325°
Rev number
12,119

§ Raw data

BRO-121 59108U 24043L   26145.15898784  .00000875  00000+0  81637-4 0  99922 59108  97.8447 276.2683 0009439  74.2937 285.9325 14.96771552121190

JSON: /api/v1/satellites/59108 · /tle

For live sub-satellite position, see the globe view (requires WebGL).

§ Visibility from observer

Set your observer location to see the next 7 days of passes ≥ 10°. The values pass through the URL so the page stays shareable.

No JS? Fill the form by hand. The geolocation button needs JavaScript.

§ Radio — SatNOGS DB

ModeDescriptionDownlinkUplink
BPSK Mode S - Transmitter 2.261 GHz
FSK AX.100 Mode 5 Mode U - FSK4k8 - TLM 401.735 MHz
FSK AX.100 Mode 5 Mode U - FSK9k6 - TLM 401.735 MHz

3 transmitters · refreshed weekly from db.satnogs.org